Location: Misciano
(43.5000°N, 11.9500°E)
Time: 06:30:29
(UTC+00:00)

Thor Agena Rocket - Pass Details

Date: 13 August 2020
Orbit: 760 x 807 km, 99.0° (Epoch: 23 September)

Event Time Altitude Azimuth Distance (km) Brightness Sun altitude
Rises 21:52:19 0° 17° (NNE) 3,246 7.4 -29.0°
Reaches altitude 10° 21:54:39 10° 21° (NNE) 2,320 6.5 -29.2°
Enters shadow 21:58:14 43° 43° (NE) 1,078 4.3 -29.5°
